Time,TemperatureF,DewpointF,PressureIn,WindDirection,WindDirectionDegrees,WindSpeedMPH,WindSpeedGustMPH,Humidity,HourlyPrecipIn,Conditions,Clouds,dailyrainin,SolarRadiationWatts/m^2,SoftwareType,DateUTC
2013-01-19 00:04:00,31.5,23.2,29.97,WSW,256,8.0,10.0,71,0.00,,,0.00,0.0,meteohub,2013-01-19 06:04:00,
2013-01-19 00:09:00,31.8,23.2,29.96,WSW,257,10.0,10.0,70,0.00,,,0.00,0.0,meteohub,2013-01-19 06:09:00,
2013-01-19 00:14:00,31.6,22.6,29.96,WSW,257,10.0,10.0,69,0.00,,,0.00,0.0,meteohub,2013-01-19 06:14:00,
2013-01-19 00:19:00,31.5,23.2,29.96,WSW,252,11.0,11.0,71,0.00,,,0.00,0.0,meteohub,2013-01-19 06:19:00,
2013-01-19 00:24:00,31.5,23.2,29.96,WSW,248,9.0,11.0,71,0.00,,,0.00,0.0,meteohub,2013-01-19 06:24:00,
2013-01-19 00:30:00,31.6,23.4,29.96,WSW,250,10.0,11.0,71,0.00,,,0.00,0.0,meteohub,2013-01-19 06:30:00,
2013-01-19 00:35:00,31.6,23.4,29.96,WSW,249,9.0,11.0,71,0.00,,,0.00,0.0,meteohub,2013-01-19 06:35:00,
2013-01-19 00:40:00,31.6,23.4,29.96,WSW,252,9.0,11.0,71,0.00,,,0.00,0.0,meteohub,2013-01-19 06:40:00,
2013-01-19 00:45:00,31.6,23.4,29.96,WSW,247,11.0,11.0,71,0.00,,,0.00,0.0,meteohub,2013-01-19 06:45:00,
2013-01-19 00:50:00,31.8,23.5,29.96,WSW,248,11.0,12.0,71,0.00,,,0.00,0.0,meteohub,2013-01-19 06:50:00,
2013-01-19 00:55:00,31.8,23.5,29.96,WSW,248,11.0,12.0,71,0.00,,,0.00,0.0,meteohub,2013-01-19 06:55:00,
2013-01-19 01:00:00,31.6,23.4,29.96,WSW,244,10.0,12.0,71,0.00,,,0.00,0.0,meteohub,2013-01-19 07:00:00,
2013-01-19 01:05:00,31.5,23.2,29.96,WSW,251,11.0,12.0,71,0.00,,,0.00,0.0,meteohub,2013-01-19 07:05:00,
2013-01-19 01:11:00,31.5,23.2,29.96,WSW,250,11.0,12.0,71,0.00,,,0.00,0.0,meteohub,2013-01-19 07:11:00,
2013-01-19 01:16:00,31.5,23.2,29.96,WSW,255,11.0,12.0,71,0.00,,,0.00,0.0,meteohub,2013-01-19 07:16:00,
2013-01-19 01:21:00,31.3,23.4,29.96,West,260,10.0,12.0,72,0.00,,,0.00,0.0,meteohub,2013-01-19 07:21:00,
2013-01-19 01:26:00,30.9,22.6,29.96,West,263,7.0,12.0,71,0.00,,,0.00,0.0,meteohub,2013-01-19 07:26:00,
2013-01-19 01:31:00,30.4,22.8,29.96,WSW,254,8.0,12.0,73,0.00,,,0.00,0.0,meteohub,2013-01-19 07:31:00,
2013-01-19 01:36:00,30.4,22.8,29.95,WSW,248,11.0,11.0,73,0.00,,,0.00,0.0,meteohub,2013-01-19 07:36:00,
2013-01-19 01:41:00,30.9,23.4,29.95,WSW,248,11.0,12.0,73,0.00,,,0.00,0.0,meteohub,2013-01-19 07:41:00,
2013-01-19 01:46:00,31.6,23.7,29.95,WSW,246,12.0,12.0,72,0.00,,,0.00,0.0,meteohub,2013-01-19 07:46:00,
2013-01-19 01:51:00,32.5,23.9,29.95,WSW,244,10.0,12.0,70,0.00,,,0.00,0.0,meteohub,2013-01-19 07:51:00,
2013-01-19 01:56:00,32.7,23.7,29.95,WSW,249,8.0,12.0,69,0.00,,,0.00,0.0,meteohub,2013-01-19 07:56:00,
2013-01-19 02:01:00,32.7,23.7,29.95,WSW,252,9.0,12.0,69,0.00,,,0.00,0.0,meteohub,2013-01-19 08:01:00,
2013-01-19 02:06:00,32.5,23.5,29.95,WSW,250,9.0,11.0,69,0.00,,,0.00,0.0,meteohub,2013-01-19 08:06:00,
2013-01-19 02:11:00,32.4,23.4,29.95,WSW,253,9.0,10.0,69,0.00,,,0.00,0.0,meteohub,2013-01-19 08:11:00,
2013-01-19 02:17:00,32.2,23.2,29.95,West,260,9.0,10.0,69,0.00,,,0.00,0.0,meteohub,2013-01-19 08:17:00,
2013-01-19 02:22:00,32.4,23.4,29.95,West,262,12.0,12.0,69,0.00,,,0.00,0.0,meteohub,2013-01-19 08:22:00,
2013-01-19 02:27:00,33.1,23.7,29.94,West,259,14.0,14.0,68,0.00,,,0.00,0.0,meteohub,2013-01-19 08:27:00,
2013-01-19 02:32:00,33.3,23.9,29.94,West,261,12.0,15.0,68,0.00,,,0.00,0.0,meteohub,2013-01-19 08:32:00,
2013-01-19 02:37:00,32.7,23.4,29.94,West,266,10.0,15.0,68,0.00,,,0.00,0.0,meteohub,2013-01-19 08:37:00,
2013-01-19 02:42:00,33.1,23.7,29.94,West,268,10.0,15.0,68,0.00,,,0.00,0.0,meteohub,2013-01-19 08:42:00,
2013-01-19 02:47:00,33.6,23.9,29.94,West,270,11.0,13.0,67,0.00,,,0.00,0.0,meteohub,2013-01-19 08:47:00,
2013-01-19 02:52:00,34.2,24.1,29.94,West,265,11.0,13.0,66,0.00,,,0.00,0.0,meteohub,2013-01-19 08:52:00,
2013-01-19 02:58:00,33.6,23.5,29.94,West,267,10.0,13.0,66,0.00,,,0.00,0.0,meteohub,2013-01-19 08:58:00,
2013-01-19 03:03:00,33.8,23.7,29.94,West,272,11.0,12.0,66,0.00,,,0.00,0.0,meteohub,2013-01-19 09:03:00,
2013-01-19 03:08:00,34.5,23.9,29.94,West,278,12.0,13.0,65,0.00,,,0.00,0.0,meteohub,2013-01-19 09:08:00,
2013-01-19 03:13:00,34.3,23.4,29.94,West,275,12.0,13.0,64,0.00,,,0.00,0.0,meteohub,2013-01-19 09:13:00,
2013-01-19 03:18:00,34.5,23.5,29.94,West,268,13.0,13.0,64,0.00,,,0.00,0.0,meteohub,2013-01-19 09:18:00,
2013-01-19 03:23:00,35.1,23.7,29.94,West,273,11.0,14.0,63,0.00,,,0.00,0.0,meteohub,2013-01-19 09:23:00,
2013-01-19 03:28:00,35.1,23.7,29.94,WNW,284,11.0,14.0,63,0.00,,,0.00,0.0,meteohub,2013-01-19 09:28:00,
2013-01-19 03:33:00,34.5,23.2,29.94,West,273,13.0,14.0,63,0.00,,,0.00,0.0,meteohub,2013-01-19 09:33:00,
2013-01-19 03:38:00,34.5,23.2,29.94,WNW,288,10.0,15.0,63,0.00,,,0.00,0.0,meteohub,2013-01-19 09:38:00,
2013-01-19 03:43:00,34.2,22.8,29.94,West,281,10.0,15.0,63,0.00,,,0.00,0.0,meteohub,2013-01-19 09:43:00,
2013-01-19 03:48:00,34.3,23.0,29.94,West,277,12.0,15.0,63,0.00,,,0.00,0.0,meteohub,2013-01-19 09:48:00,
2013-01-19 03:53:00,34.7,23.0,29.94,WNW,287,9.0,13.0,62,0.00,,,0.00,0.0,meteohub,2013-01-19 09:53:00,
2013-01-19 03:58:00,34.7,23.0,29.94,WNW,282,9.0,13.0,62,0.00,,,0.00,0.0,meteohub,2013-01-19 09:58:00,
2013-01-19 04:04:00,34.7,23.0,29.94,West,273,9.0,13.0,62,0.00,,,0.00,0.0,meteohub,2013-01-19 10:04:00,
2013-01-19 04:09:00,34.3,22.6,29.94,West,274,12.0,12.0,62,0.00,,,0.00,0.0,meteohub,2013-01-19 10:09:00,
2013-01-19 04:14:00,33.6,22.5,29.94,West,273,11.0,12.0,63,0.00,,,0.00,0.0,meteohub,2013-01-19 10:14:00,
2013-01-19 04:19:00,33.6,22.5,29.94,West,272,10.0,12.0,63,0.00,,,0.00,0.0,meteohub,2013-01-19 10:19:00,
2013-01-19 04:24:00,34.0,22.6,29.94,West,273,10.0,12.0,63,0.00,,,0.00,0.0,meteohub,2013-01-19 10:24:00,
2013-01-19 04:29:00,34.0,22.3,29.94,West,275,10.0,12.0,62,0.00,,,0.00,0.0,meteohub,2013-01-19 10:29:00,
2013-01-19 04:34:00,34.0,22.3,29.94,West,281,7.0,12.0,62,0.00,,,0.00,0.0,meteohub,2013-01-19 10:34:00,
2013-01-19 04:39:00,33.4,22.3,29.94,WNW,282,9.0,12.0,63,0.00,,,0.00,0.0,meteohub,2013-01-19 10:39:00,
2013-01-19 04:44:00,33.4,22.3,29.94,West,277,10.0,11.0,63,0.00,,,0.00,0.0,meteohub,2013-01-19 10:44:00,
2013-01-19 04:49:00,33.6,21.9,29.94,West,280,9.0,12.0,62,0.00,,,0.00,0.0,meteohub,2013-01-19 10:49:00,
2013-01-19 04:54:00,33.8,21.7,29.94,West,279,9.0,12.0,61,0.00,,,0.00,0.0,meteohub,2013-01-19 10:54:00,
2013-01-19 04:59:00,33.3,21.2,29.94,West,279,9.0,12.0,61,0.00,,,0.00,0.0,meteohub,2013-01-19 10:59:00,
2013-01-19 05:04:00,33.1,21.0,29.94,West,278,8.0,12.0,61,0.00,,,0.00,0.0,meteohub,2013-01-19 11:04:00,
2013-01-19 05:09:00,33.1,21.0,29.94,West,280,9.0,12.0,61,0.00,,,0.00,0.0,meteohub,2013-01-19 11:09:00,
2013-01-19 05:15:00,33.8,21.0,29.94,WNW,284,12.0,12.0,59,0.00,,,0.00,0.0,meteohub,2013-01-19 11:15:00,
2013-01-19 06:47:00,33.4,17.2,29.99,WNW,300,4.0,7.0,51,0.00,,,0.00,0.0,meteohub,2013-01-19 12:47:00,
2013-01-19 06:48:00,33.4,17.2,29.99,WNW,298,4.0,7.0,51,0.00,,,0.00,0.0,meteohub,2013-01-19 12:48:00,
2013-01-19 06:49:00,33.6,16.9,29.99,WNW,295,4.0,7.0,50,0.00,,,0.00,0.0,meteohub,2013-01-19 12:49:00,
2013-01-19 06:54:00,34.0,16.9,29.99,WNW,293,7.0,7.0,49,0.00,,,0.00,0.0,meteohub,2013-01-19 12:54:00,
2013-01-19 06:59:00,34.7,17.1,29.99,WNW,291,9.0,9.0,48,0.00,,,0.00,0.0,meteohub,2013-01-19 12:59:00,
2013-01-19 07:05:00,34.9,16.7,29.99,WNW,288,11.0,12.0,47,0.00,,,0.00,0.0,meteohub,2013-01-19 13:05:00,
2013-01-19 07:10:00,35.1,16.9,29.99,WNW,286,10.0,12.0,47,0.00,,,0.00,0.0,meteohub,2013-01-19 13:10:00,
2013-01-19 07:15:00,35.2,16.5,29.99,WNW,292,11.0,13.0,46,0.00,,,0.00,0.0,meteohub,2013-01-19 13:15:00,
2013-01-19 07:20:00,35.6,16.3,29.99,WNW,290,12.0,13.0,45,0.00,,,0.00,0.0,meteohub,2013-01-19 13:20:00,
2013-01-19 07:25:00,35.8,16.0,29.99,WNW,292,12.0,14.0,44,0.00,,,0.00,0.0,meteohub,2013-01-19 13:25:00,
2013-01-19 07:30:00,35.4,16.2,29.99,WNW,292,10.0,14.0,45,0.00,,,0.00,0.0,meteohub,2013-01-19 13:30:00,
2013-01-19 07:35:00,35.6,16.3,30.00,WNW,289,12.0,15.0,45,0.00,,,0.00,0.0,meteohub,2013-01-19 13:35:00,
2013-01-19 07:40:00,35.6,16.3,30.00,WNW,301,11.0,15.0,45,0.00,,,0.00,0.0,meteohub,2013-01-19 13:40:00,
2013-01-19 07:45:00,35.8,16.0,30.00,WNW,303,9.0,15.0,44,0.00,,,0.00,0.0,meteohub,2013-01-19 13:45:00,
2013-01-19 07:50:00,36.0,16.2,30.00,WNW,298,14.0,16.0,44,0.00,,,0.00,0.0,meteohub,2013-01-19 13:50:00,
2013-01-19 07:55:00,36.1,15.8,30.00,NW,304,14.0,17.0,43,0.00,,,0.00,0.0,meteohub,2013-01-19 13:55:00,
2013-01-19 08:00:00,36.0,15.6,30.00,WNW,298,14.0,17.0,43,0.00,,,0.00,7.0,meteohub,2013-01-19 14:00:00,
2013-01-19 08:05:00,36.1,15.8,30.00,NW,311,14.0,16.0,43,0.00,,,0.00,9.0,meteohub,2013-01-19 14:05:00,
2013-01-19 08:10:00,36.3,16.0,30.01,NW,311,15.0,18.0,43,0.00,,,0.00,11.0,meteohub,2013-01-19 14:10:00,
2013-01-19 08:15:00,37.6,15.4,30.01,NW,304,16.0,18.0,40,0.00,,,0.00,14.0,meteohub,2013-01-19 14:15:00,
2013-01-19 08:20:00,38.3,15.4,30.01,WNW,303,14.0,20.0,39,0.00,,,0.00,26.0,meteohub,2013-01-19 14:20:00,
2013-01-19 08:25:00,38.1,15.3,30.02,NW,310,14.0,20.0,39,0.00,,,0.00,37.0,meteohub,2013-01-19 14:25:00,
2013-01-19 08:30:00,38.5,15.6,30.02,NW,307,13.0,20.0,39,0.00,,,0.00,51.0,meteohub,2013-01-19 14:30:00,
2013-01-19 08:36:00,38.8,16.0,30.02,NW,322,14.0,17.0,39,0.00,,,0.00,67.0,meteohub,2013-01-19 14:36:00,
2013-01-19 08:41:00,39.4,15.8,30.03,NW,315,15.0,17.0,38,0.00,,,0.00,83.0,meteohub,2013-01-19 14:41:00,
2013-01-19 08:46:00,39.9,15.8,30.03,NW,323,12.0,17.0,37,0.00,,,0.00,100.0,meteohub,2013-01-19 14:46:00,
2013-01-19 08:51:00,40.5,16.2,30.03,NW,317,15.0,17.0,37,0.00,,,0.00,120.0,meteohub,2013-01-19 14:51:00,
2013-01-19 08:56:00,40.6,16.3,30.04,NW,325,13.0,17.0,37,0.00,,,0.00,139.0,meteohub,2013-01-19 14:56:00,
2013-01-19 09:01:00,41.0,16.2,30.05,NW,326,15.0,17.0,36,0.00,,,0.00,158.0,meteohub,2013-01-19 15:01:00,
2013-01-19 09:06:00,41.4,15.8,30.05,NW,320,11.0,15.0,35,0.00,,,0.00,179.0,meteohub,2013-01-19 15:06:00,
2013-01-19 09:11:00,41.5,16.0,30.05,NNW,327,10.0,15.0,35,0.00,,,0.00,197.0,meteohub,2013-01-19 15:11:00,
2013-01-19 09:16:00,41.7,16.7,30.06,NW,323,11.0,15.0,36,0.00,,,0.00,214.0,meteohub,2013-01-19 15:16:00,
2013-01-19 09:21:00,42.1,17.1,30.06,NW,324,10.0,14.0,36,0.00,,,0.00,229.0,meteohub,2013-01-19 15:21:00,
2013-01-19 09:26:00,42.4,17.4,30.07,NW,325,9.0,13.0,36,0.00,,,0.00,241.0,meteohub,2013-01-19 15:26:00,
2013-01-19 09:31:00,43.2,17.4,30.08,NNW,331,11.0,12.0,35,0.00,,,0.00,257.0,meteohub,2013-01-19 15:31:00,
2013-01-19 09:36:00,44.1,17.4,30.08,NW,325,6.0,13.0,34,0.00,,,0.00,271.0,meteohub,2013-01-19 15:36:00,
2013-01-19 09:42:00,45.0,17.6,30.08,NNW,340,8.0,13.0,33,0.00,,,0.00,285.0,meteohub,2013-01-19 15:42:00,
2013-01-19 09:47:00,45.7,18.1,30.09,North,355,7.0,13.0,33,0.00,,,0.00,299.0,meteohub,2013-01-19 15:47:00,
2013-01-19 09:52:00,46.4,18.1,30.10,NNW,329,9.0,13.0,32,0.00,,,0.00,315.0,meteohub,2013-01-19 15:52:00,
2013-01-19 09:57:00,47.7,17.8,30.10,North,350,11.0,13.0,30,0.00,,,0.00,329.0,meteohub,2013-01-19 15:57:00,
2013-01-19 10:02:00,48.4,17.6,30.10,NNW,342,7.0,16.0,29,0.00,,,0.00,341.0,meteohub,2013-01-19 16:02:00,
2013-01-19 10:07:00,48.9,18.0,30.11,NNE,19,10.0,16.0,29,0.00,,,0.00,355.0,meteohub,2013-01-19 16:07:00,
2013-01-19 10:12:00,49.3,18.3,30.11,North,11,7.0,16.0,29,0.00,,,0.00,367.0,meteohub,2013-01-19 16:12:00,
2013-01-19 10:17:00,49.8,18.0,30.11,North,11,9.0,14.0,28,0.00,,,0.00,381.0,meteohub,2013-01-19 16:17:00,
2013-01-19 10:22:00,50.2,17.4,30.12,North,355,12.0,17.0,27,0.00,,,0.00,390.0,meteohub,2013-01-19 16:22:00,
2013-01-19 10:27:00,50.4,17.6,30.12,NNW,346,9.0,17.0,27,0.00,,,0.00,406.0,meteohub,2013-01-19 16:27:00,
2013-01-19 10:32:00,50.9,17.2,30.12,North,5,13.0,17.0,26,0.00,,,0.00,417.0,meteohub,2013-01-19 16:32:00,
2013-01-19 10:37:00,51.3,16.7,30.12,NNE,17,14.0,17.0,25,0.00,,,0.00,429.0,meteohub,2013-01-19 16:37:00,
2013-01-19 10:42:00,51.4,17.6,30.13,North,5,12.0,20.0,26,0.00,,,0.00,439.0,meteohub,2013-01-19 16:42:00,
2013-01-19 10:47:00,52.2,17.4,30.13,NNE,17,13.0,20.0,25,0.00,,,0.00,454.0,meteohub,2013-01-19 16:47:00,
2013-01-19 10:52:00,52.5,16.7,30.13,NNE,13,14.0,21.0,24,0.00,,,0.00,464.0,meteohub,2013-01-19 16:52:00,
2013-01-19 10:57:00,53.1,17.2,30.13,NNE,19,15.0,21.0,24,0.00,,,0.00,475.0,meteohub,2013-01-19 16:57:00,
2013-01-19 11:02:00,53.2,16.3,30.13,NNE,12,10.0,22.0,23,0.00,,,0.00,483.0,meteohub,2013-01-19 17:02:00,
2013-01-19 11:08:00,53.6,17.6,30.13,NNE,29,15.0,22.0,24,0.00,,,0.00,494.0,meteohub,2013-01-19 17:08:00,
2013-01-19 11:13:00,54.1,17.1,30.13,NE,48,11.0,22.0,23,0.00,,,0.00,504.0,meteohub,2013-01-19 17:13:00,
2013-01-19 11:18:00,54.3,17.2,30.13,NNE,19,18.0,22.0,23,0.00,,,0.00,513.0,meteohub,2013-01-19 17:18:00,
2013-01-19 11:23:00,54.3,16.3,30.13,NNE,17,20.0,23.0,22,0.00,,,0.00,522.0,meteohub,2013-01-19 17:23:00,
2013-01-19 11:28:00,54.7,17.6,30.13,NNE,32,10.0,23.0,23,0.00,,,0.00,529.0,meteohub,2013-01-19 17:28:00,
2013-01-19 11:33:00,54.9,16.7,30.13,NNE,22,12.0,23.0,22,0.00,,,0.00,538.0,meteohub,2013-01-19 17:33:00,
2013-01-19 11:38:00,55.0,18.0,30.13,NNE,14,14.0,22.0,23,0.00,,,0.00,547.0,meteohub,2013-01-19 17:38:00,
2013-01-19 11:43:00,55.6,17.2,30.13,NNE,13,15.0,20.0,22,0.00,,,0.00,554.0,meteohub,2013-01-19 17:43:00,
2013-01-19 11:49:00,56.1,18.9,30.12,North,9,8.0,20.0,23,0.00,,,0.00,559.0,meteohub,2013-01-19 17:49:00,
2013-01-19 11:55:00,56.1,16.7,30.12,NNW,337,13.0,20.0,21,0.00,,,0.00,566.0,meteohub,2013-01-19 17:55:00,
2013-01-19 12:00:00,56.5,17.1,30.12,North,5,12.0,20.0,21,0.00,,,0.00,571.0,meteohub,2013-01-19 18:00:00,
2013-01-19 12:05:00,56.5,17.1,30.12,North,9,13.0,19.0,21,0.00,,,0.00,577.0,meteohub,2013-01-19 18:05:00,
2013-01-19 12:10:00,57.0,17.4,30.11,North,355,14.0,19.0,21,0.00,,,0.00,584.0,meteohub,2013-01-19 18:10:00,
2013-01-19 12:15:00,57.4,16.7,30.11,NNE,18,17.0,20.0,20,0.00,,,0.00,577.0,meteohub,2013-01-19 18:15:00,
2013-01-19 12:22:00,57.6,16.7,30.11,NNE,17,13.0,22.0,20,0.00,,,0.00,592.0,meteohub,2013-01-19 18:22:00,
2013-01-19 12:27:00,57.6,16.7,30.11,North,11,15.0,22.0,20,0.00,,,0.00,596.0,meteohub,2013-01-19 18:27:00,
2013-01-19 12:32:00,57.9,17.1,30.10,NNE,30,9.0,22.0,20,0.00,,,0.00,598.0,meteohub,2013-01-19 18:32:00,
2013-01-19 12:37:00,57.9,17.1,30.10,North,0,17.0,21.0,20,0.00,,,0.00,599.0,meteohub,2013-01-19 18:37:00,
2013-01-19 12:42:00,58.3,16.2,30.09,North,351,18.0,21.0,19,0.00,,,0.00,603.0,meteohub,2013-01-19 18:42:00,
2013-01-19 12:47:00,58.5,16.3,30.09,NNE,17,13.0,20.0,19,0.00,,,0.00,603.0,meteohub,2013-01-19 18:47:00,
2013-01-19 12:53:00,58.6,16.5,30.09,North,11,13.0,20.0,19,0.00,,,0.00,605.0,meteohub,2013-01-19 18:53:00,
2013-01-19 12:58:00,58.6,16.5,30.09,North,5,17.0,20.0,19,0.00,,,0.00,606.0,meteohub,2013-01-19 18:58:00,
2013-01-19 12:59:00,58.6,16.5,30.09,North,0,11.0,20.0,19,0.00,,,0.00,606.0,meteohub,2013-01-19 18:59:00,
2013-01-19 13:07:00,58.8,16.7,30.09,NNE,22,14.0,19.0,19,0.00,,,0.00,606.0,meteohub,2013-01-19 19:07:00,
2013-01-19 13:12:00,59.0,16.7,30.08,North,355,11.0,19.0,19,0.00,,,0.00,605.0,meteohub,2013-01-19 19:12:00,
2013-01-19 13:17:00,59.4,17.1,30.09,NNE,30,13.0,20.0,19,0.00,,,0.00,603.0,meteohub,2013-01-19 19:17:00,
2013-01-19 13:22:00,59.4,17.1,30.08,NNW,343,11.0,20.0,19,0.00,,,0.00,601.0,meteohub,2013-01-19 19:22:00,
2013-01-19 13:28:00,59.4,18.3,30.08,North,11,16.0,19.0,20,0.00,,,0.00,603.0,meteohub,2013-01-19 19:28:00,
2013-01-19 13:33:00,59.2,16.9,30.08,North,9,13.0,19.0,19,0.00,,,0.00,599.0,meteohub,2013-01-19 19:33:00,
2013-01-19 13:38:00,59.2,18.1,30.08,NNE,16,14.0,20.0,20,0.00,,,0.00,592.0,meteohub,2013-01-19 19:38:00,
2013-01-19 13:43:00,59.2,16.9,30.08,North,351,15.0,20.0,19,0.00,,,0.00,592.0,meteohub,2013-01-19 19:43:00,
2013-01-19 13:49:00,59.2,18.1,30.08,NNW,344,9.0,20.0,20,0.00,,,0.00,587.0,meteohub,2013-01-19 19:49:00,
2013-01-19 13:54:00,59.4,17.1,30.08,NNW,346,11.0,19.0,19,0.00,,,0.00,582.0,meteohub,2013-01-19 19:54:00,
2013-01-19 13:59:00,59.4,17.1,30.08,NNW,332,8.0,20.0,19,0.00,,,0.00,578.0,meteohub,2013-01-19 19:59:00,
2013-01-19 14:04:00,59.4,17.1,30.08,NNE,15,18.0,20.0,19,0.00,,,0.00,573.0,meteohub,2013-01-19 20:04:00,
2013-01-19 14:09:00,59.4,18.3,30.08,NNW,341,15.0,20.0,20,0.00,,,0.00,568.0,meteohub,2013-01-19 20:09:00,
2013-01-19 14:14:00,59.4,18.3,30.08,North,10,13.0,21.0,20,0.00,,,0.00,561.0,meteohub,2013-01-19 20:14:00,
2013-01-19 14:20:00,59.4,18.3,30.08,North,0,12.0,21.0,20,0.00,,,0.00,555.0,meteohub,2013-01-19 20:20:00,
2013-01-19 14:25:00,59.4,18.3,30.08,NNE,21,17.0,21.0,20,0.00,,,0.00,547.0,meteohub,2013-01-19 20:25:00,
2013-01-19 14:30:00,59.4,18.3,30.08,North,5,10.0,20.0,20,0.00,,,0.00,543.0,meteohub,2013-01-19 20:30:00,
2013-01-19 14:35:00,59.5,17.2,30.08,North,355,15.0,20.0,19,0.00,,,0.00,533.0,meteohub,2013-01-19 20:35:00,
2013-01-19 14:40:00,59.5,17.2,30.08,North,355,9.0,20.0,19,0.00,,,0.00,524.0,meteohub,2013-01-19 20:40:00,
2013-01-19 14:45:00,59.7,17.4,30.08,North,9,13.0,20.0,19,0.00,,,0.00,517.0,meteohub,2013-01-19 20:45:00,
2013-01-19 14:50:00,59.9,17.6,30.08,NNE,18,11.0,20.0,19,0.00,,,0.00,504.0,meteohub,2013-01-19 20:50:00,
2013-01-19 14:55:00,59.9,17.6,30.08,NNE,27,17.0,19.0,19,0.00,,,0.00,497.0,meteohub,2013-01-19 20:55:00,
2013-01-19 15:00:00,59.9,17.6,30.08,NE,36,12.0,19.0,19,0.00,,,0.00,489.0,meteohub,2013-01-19 21:00:00,
2013-01-19 15:05:00,59.7,18.5,30.08,NNE,17,15.0,20.0,20,0.00,,,0.00,478.0,meteohub,2013-01-19 21:05:00,
2013-01-19 15:10:00,59.9,17.6,30.09,NNE,15,12.0,20.0,19,0.00,,,0.00,468.0,meteohub,2013-01-19 21:10:00,
2013-01-19 15:15:00,59.7,18.5,30.09,North,355,14.0,20.0,20,0.00,,,0.00,457.0,meteohub,2013-01-19 21:15:00,
2013-01-19 15:20:00,59.9,18.7,30.09,NNE,22,9.0,17.0,20,0.00,,,0.00,445.0,meteohub,2013-01-19 21:20:00,
2013-01-19 15:26:00,59.7,18.5,30.09,NE,34,11.0,18.0,20,0.00,,,0.00,434.0,meteohub,2013-01-19 21:26:00,
2013-01-19 15:31:00,59.7,19.8,30.09,NE,35,12.0,18.0,21,0.00,,,0.00,424.0,meteohub,2013-01-19 21:31:00,
2013-01-19 15:36:00,59.7,18.5,30.09,North,11,13.0,17.0,20,0.00,,,0.00,406.0,meteohub,2013-01-19 21:36:00,
2013-01-19 15:42:00,59.7,18.5,30.09,NNE,12,12.0,18.0,20,0.00,,,0.00,394.0,meteohub,2013-01-19 21:42:00,
2013-01-19 15:47:00,59.7,18.5,30.09,NNE,30,11.0,18.0,20,0.00,,,0.00,380.0,meteohub,2013-01-19 21:47:00,
2013-01-19 15:53:00,59.9,18.7,30.09,NE,38,12.0,18.0,20,0.00,,,0.00,367.0,meteohub,2013-01-19 21:53:00,
2013-01-19 15:58:00,60.1,18.9,30.09,NNE,33,14.0,17.0,20,0.00,,,0.00,353.0,meteohub,2013-01-19 21:58:00,
2013-01-19 16:03:00,59.9,19.9,30.09,NNE,30,15.0,19.0,21,0.00,,,0.00,339.0,meteohub,2013-01-19 22:03:00,
2013-01-19 16:08:00,59.9,18.7,30.09,North,11,12.0,19.0,20,0.00,,,0.00,327.0,meteohub,2013-01-19 22:08:00,
2013-01-19 16:13:00,60.1,18.9,30.10,NE,34,15.0,19.0,20,0.00,,,0.00,309.0,meteohub,2013-01-19 22:13:00,
2013-01-19 16:18:00,60.1,18.9,30.10,NE,40,15.0,16.0,20,0.00,,,0.00,297.0,meteohub,2013-01-19 22:18:00,
2013-01-19 16:23:00,59.9,18.7,30.10,NE,38,12.0,16.0,20,0.00,,,0.00,281.0,meteohub,2013-01-19 22:23:00,
2013-01-19 16:28:00,59.7,19.8,30.10,NE,44,12.0,16.0,21,0.00,,,0.00,265.0,meteohub,2013-01-19 22:28:00,
2013-01-19 16:33:00,59.7,18.5,30.11,NNE,27,11.0,16.0,20,0.00,,,0.00,248.0,meteohub,2013-01-19 22:33:00,
2013-01-19 16:38:00,59.5,18.5,30.11,NE,36,14.0,16.0,20,0.00,,,0.00,229.0,meteohub,2013-01-19 22:38:00,
2013-01-19 16:45:00,59.2,19.2,30.11,NE,42,11.0,16.0,21,0.00,,,0.00,202.0,meteohub,2013-01-19 22:45:00,
2013-01-19 16:50:00,58.8,19.0,30.11,NNE,30,15.0,16.0,21,0.00,,,0.00,181.0,meteohub,2013-01-19 22:50:00,
2013-01-19 16:55:00,58.6,18.9,30.12,NE,39,12.0,16.0,21,0.00,,,0.00,162.0,meteohub,2013-01-19 22:55:00,
2013-01-19 17:00:00,58.5,19.8,30.12,NNE,24,9.0,16.0,22,0.00,,,0.00,141.0,meteohub,2013-01-19 23:00:00,
2013-01-19 17:06:00,58.5,19.8,30.12,NE,36,11.0,16.0,22,0.00,,,0.00,121.0,meteohub,2013-01-19 23:06:00,
2013-01-19 17:11:00,58.1,19.4,30.12,NE,45,10.0,14.0,22,0.00,,,0.00,104.0,meteohub,2013-01-19 23:11:00,
2013-01-19 17:17:00,57.7,20.1,30.12,NNE,33,7.0,13.0,23,0.00,,,0.00,83.0,meteohub,2013-01-19 23:17:00,
2013-01-19 17:22:00,57.2,19.8,30.12,NE,36,8.0,12.0,23,0.00,,,0.00,67.0,meteohub,2013-01-19 23:22:00,
2013-01-19 17:27:00,56.7,20.3,30.13,NE,39,6.0,11.0,24,0.00,,,0.00,53.0,meteohub,2013-01-19 23:27:00,
2013-01-19 17:32:00,55.9,19.6,30.13,NE,36,6.0,11.0,24,0.00,,,0.00,40.0,meteohub,2013-01-19 23:32:00,
2013-01-19 17:38:00,55.0,19.8,30.13,NE,40,7.0,9.0,25,0.00,,,0.00,28.0,meteohub,2013-01-19 23:38:00,
2013-01-19 17:43:00,54.1,19.0,30.13,NE,43,7.0,8.0,25,0.00,,,0.00,19.0,meteohub,2013-01-19 23:43:00,
2013-01-19 17:48:00,53.6,19.6,30.13,NE,41,7.0,8.0,26,0.00,,,0.00,14.0,meteohub,2013-01-19 23:48:00,
2013-01-19 17:54:00,53.1,19.0,30.13,NE,40,6.0,8.0,26,0.00,,,0.00,11.0,meteohub,2013-01-19 23:54:00,
2013-01-19 17:59:00,52.3,19.4,30.13,NNE,30,7.0,8.0,27,0.00,,,0.00,5.0,meteohub,2013-01-19 23:59:00,
2013-01-19 18:04:00,52.0,19.0,30.13,NE,36,7.0,7.0,27,0.00,,,0.00,0.0,meteohub,2013-01-20 00:04:00,
2013-01-19 18:09:00,51.4,18.5,30.14,NE,36,6.0,7.0,27,0.00,,,0.00,0.0,meteohub,2013-01-20 00:09:00,
2013-01-19 18:14:00,51.1,18.3,30.14,NE,36,6.0,7.0,27,0.00,,,0.00,0.0,meteohub,2013-01-20 00:14:00,
2013-01-19 18:19:00,50.4,18.5,30.14,NE,36,5.0,7.0,28,0.00,,,0.00,0.0,meteohub,2013-01-20 00:19:00,
2013-01-19 18:24:00,50.2,19.2,30.14,NE,35,3.0,7.0,29,0.00,,,0.00,0.0,meteohub,2013-01-20 00:24:00,
2013-01-19 18:29:00,49.8,18.9,30.14,NE,35,5.0,6.0,29,0.00,,,0.00,0.0,meteohub,2013-01-20 00:29:00,
2013-01-19 18:34:00,49.6,18.7,30.14,NE,34,5.0,6.0,29,0.00,,,0.00,0.0,meteohub,2013-01-20 00:34:00,
2013-01-19 18:39:00,49.5,19.2,30.15,NE,34,4.0,6.0,30,0.00,,,0.00,0.0,meteohub,2013-01-20 00:39:00,
2013-01-19 18:46:00,49.3,19.2,30.15,NE,34,4.0,6.0,30,0.00,,,0.00,0.0,meteohub,2013-01-20 00:46:00,
2013-01-19 18:51:00,49.5,19.2,30.15,NE,34,4.0,5.0,30,0.00,,,0.00,0.0,meteohub,2013-01-20 00:51:00,
2013-01-19 18:57:00,49.3,19.2,30.16,NE,34,4.0,5.0,30,0.00,,,0.00,0.0,meteohub,2013-01-20 00:57:00,
2013-01-19 19:02:00,49.1,19.0,30.16,NE,34,4.0,5.0,30,0.00,,,0.00,0.0,meteohub,2013-01-20 01:02:00,
2013-01-19 19:07:00,48.7,19.4,30.16,NE,34,4.0,5.0,31,0.00,,,0.00,0.0,meteohub,2013-01-20 01:07:00,
2013-01-19 19:12:00,48.0,18.9,30.16,NE,34,6.0,6.0,31,0.00,,,0.00,0.0,meteohub,2013-01-20 01:12:00,
2013-01-19 19:18:00,47.7,18.5,30.16,NE,34,7.0,7.0,31,0.00,,,0.00,0.0,meteohub,2013-01-20 01:18:00,
2013-01-19 19:23:00,47.5,19.0,30.16,NE,35,7.0,7.0,32,0.00,,,0.00,0.0,meteohub,2013-01-20 01:23:00,
2013-01-19 19:28:00,47.1,18.7,30.16,NE,34,8.0,8.0,32,0.00,,,0.00,0.0,meteohub,2013-01-20 01:28:00,
2013-01-19 19:33:00,46.9,18.7,30.16,NE,37,7.0,8.0,32,0.00,,,0.00,0.0,meteohub,2013-01-20 01:33:00,
2013-01-19 19:38:00,46.8,18.5,30.17,NE,37,6.0,8.0,32,0.00,,,0.00,0.0,meteohub,2013-01-20 01:38:00,
2013-01-19 19:43:00,46.4,18.1,30.17,NE,37,6.0,8.0,32,0.00,,,0.00,0.0,meteohub,2013-01-20 01:43:00,
2013-01-19 19:48:00,45.9,18.3,30.17,NE,37,6.0,8.0,33,0.00,,,0.00,0.0,meteohub,2013-01-20 01:48:00,
2013-01-19 19:53:00,45.9,18.3,30.17,NE,37,6.0,8.0,33,0.00,,,0.00,0.0,meteohub,2013-01-20 01:53:00,
2013-01-19 19:58:00,45.7,18.1,30.17,NE,37,5.0,7.0,33,0.00,,,0.00,0.0,meteohub,2013-01-20 01:58:00,
2013-01-19 20:04:00,45.5,18.7,30.17,NE,36,6.0,7.0,34,0.00,,,0.00,0.0,meteohub,2013-01-20 02:04:00,
2013-01-19 20:09:00,46.0,18.5,30.17,NE,36,5.0,6.0,33,0.00,,,0.00,0.0,meteohub,2013-01-20 02:09:00,
2013-01-19 20:14:00,46.0,18.5,30.17,NE,36,4.0,6.0,33,0.00,,,0.00,0.0,meteohub,2013-01-20 02:14:00,
2013-01-19 20:19:00,46.0,19.2,30.17,NE,36,5.0,6.0,34,0.00,,,0.00,0.0,meteohub,2013-01-20 02:19:00,
2013-01-19 20:24:00,46.0,18.5,30.18,NE,37,6.0,6.0,33,0.00,,,0.00,0.0,meteohub,2013-01-20 02:24:00,
2013-01-19 20:29:00,45.9,18.3,30.18,NE,37,5.0,6.0,33,0.00,,,0.00,0.0,meteohub,2013-01-20 02:29:00,
2013-01-19 20:34:00,44.2,17.6,30.18,NE,37,4.0,6.0,34,0.00,,,0.00,0.0,meteohub,2013-01-20 02:34:00,
2013-01-19 20:40:00,43.0,17.8,30.18,NE,37,4.0,6.0,36,0.00,,,0.00,0.0,meteohub,2013-01-20 02:40:00,
2013-01-19 20:45:00,42.1,17.6,30.18,NE,37,4.0,6.0,37,0.00,,,0.00,0.0,meteohub,2013-01-20 02:45:00,
2013-01-19 20:50:00,41.9,18.1,30.18,NE,37,3.0,5.0,38,0.00,,,0.00,0.0,meteohub,2013-01-20 02:50:00,
2013-01-19 20:55:00,42.3,18.5,30.18,NE,37,1.0,5.0,38,0.00,,,0.00,0.0,meteohub,2013-01-20 02:55:00,
2013-01-19 21:00:00,43.2,19.2,30.18,NE,37,0.0,5.0,38,0.00,,,0.00,0.0,meteohub,2013-01-20 03:00:00,
2013-01-19 21:05:00,43.9,19.2,30.18,NE,37,0.0,4.0,37,0.00,,,0.00,0.0,meteohub,2013-01-20 03:05:00,
2013-01-19 21:10:00,43.9,19.2,30.18,NE,37,2.0,2.0,37,0.00,,,0.00,0.0,meteohub,2013-01-20 03:10:00,
2013-01-19 21:15:00,44.4,19.0,30.18,NE,37,2.0,3.0,36,0.00,,,0.00,0.0,meteohub,2013-01-20 03:15:00,
2013-01-19 21:20:00,44.4,19.0,30.18,NE,37,3.0,3.0,36,0.00,,,0.00,0.0,meteohub,2013-01-20 03:20:00,
2013-01-19 21:25:00,44.4,19.0,30.18,NE,37,3.0,3.0,36,0.00,,,0.00,0.0,meteohub,2013-01-20 03:25:00,
2013-01-19 21:31:00,44.2,19.0,30.18,NE,37,2.0,3.0,36,0.00,,,0.00,0.0,meteohub,2013-01-20 03:31:00,
2013-01-19 21:36:00,43.7,19.0,30.18,NE,37,0.0,3.0,37,0.00,,,0.00,0.0,meteohub,2013-01-20 03:36:00,
2013-01-19 21:41:00,42.3,17.2,30.18,SSE,148,4.0,4.0,36,0.00,,,0.00,0.0,meteohub,2013-01-20 03:41:00,
2013-01-19 21:46:00,37.6,16.5,30.18,SSW,206,7.0,8.0,42,0.00,,,0.00,0.0,meteohub,2013-01-20 03:46:00,
2013-01-19 21:51:00,34.3,16.7,30.18,SW,221,8.0,9.0,48,0.00,,,0.00,0.0,meteohub,2013-01-20 03:51:00,
2013-01-19 21:56:00,34.0,17.8,30.18,SW,223,6.0,10.0,51,0.00,,,0.00,0.0,meteohub,2013-01-20 03:56:00,
2013-01-19 22:02:00,34.2,18.0,30.18,SW,223,5.0,10.0,51,0.00,,,0.00,0.0,meteohub,2013-01-20 04:02:00,
2013-01-19 22:07:00,33.6,17.8,30.19,SW,223,8.0,10.0,52,0.00,,,0.00,0.0,meteohub,2013-01-20 04:07:00,
2013-01-19 22:12:00,33.6,18.3,30.19,SW,223,6.0,8.0,53,0.00,,,0.00,0.0,meteohub,2013-01-20 04:12:00,
2013-01-19 22:17:00,35.1,19.2,30.18,SW,223,6.0,8.0,52,0.00,,,0.00,0.0,meteohub,2013-01-20 04:17:00,
2013-01-19 22:22:00,36.3,19.0,30.18,SW,223,6.0,8.0,49,0.00,,,0.00,0.0,meteohub,2013-01-20 04:22:00,
2013-01-19 22:27:00,35.8,18.5,30.19,SW,223,5.0,7.0,49,0.00,,,0.00,0.0,meteohub,2013-01-20 04:27:00,
2013-01-19 22:32:00,36.0,18.7,30.19,SW,223,6.0,7.0,49,0.00,,,0.00,0.0,meteohub,2013-01-20 04:32:00,
2013-01-19 22:37:00,36.3,18.5,30.18,SW,223,5.0,7.0,48,0.00,,,0.00,0.0,meteohub,2013-01-20 04:37:00,
2013-01-19 22:42:00,37.2,19.4,30.18,SW,223,5.0,6.0,48,0.00,,,0.00,0.0,meteohub,2013-01-20 04:42:00,
2013-01-19 22:47:00,38.1,19.2,30.18,SW,223,5.0,6.0,46,0.00,,,0.00,0.0,meteohub,2013-01-20 04:47:00,
2013-01-19 22:52:00,39.4,19.2,30.18,SW,223,4.0,6.0,44,0.00,,,0.00,0.0,meteohub,2013-01-20 04:52:00,
2013-01-19 22:57:00,39.4,19.2,30.18,SW,223,3.0,6.0,44,0.00,,,0.00,0.0,meteohub,2013-01-20 04:57:00,
2013-01-19 23:00:00,39.6,18.9,30.18,SW,223,3.0,6.0,43,0.00,,,0.00,0.0,meteohub,2013-01-20 05:00:00,
2013-01-19 23:01:00,39.7,19.0,30.18,SW,223,2.0,6.0,43,0.00,,,0.00,0.0,meteohub,2013-01-20 05:01:00,
2013-01-19 23:03:00,40.5,19.2,30.18,SW,223,2.0,6.0,42,0.00,,,0.00,0.0,meteohub,2013-01-20 05:03:00,
2013-01-19 23:08:00,41.9,19.9,30.18,SW,223,4.0,5.0,41,0.00,,,0.00,0.0,meteohub,2013-01-20 05:08:00,
2013-01-19 23:13:00,41.2,18.1,30.18,SW,223,7.0,7.0,39,0.00,,,0.00,0.0,meteohub,2013-01-20 05:13:00,
2013-01-19 23:18:00,38.7,18.1,30.19,SW,223,7.0,9.0,43,0.00,,,0.00,0.0,meteohub,2013-01-20 05:18:00,
2013-01-19 23:23:00,37.4,18.0,30.19,SSW,211,7.0,9.0,45,0.00,,,0.00,0.0,meteohub,2013-01-20 05:23:00,
2013-01-19 23:29:00,35.8,18.0,30.19,SW,218,5.0,9.0,48,0.00,,,0.00,0.0,meteohub,2013-01-20 05:29:00,
2013-01-19 23:34:00,35.4,18.1,30.19,SW,218,3.0,9.0,49,0.00,,,0.00,0.0,meteohub,2013-01-20 05:34:00,
2013-01-19 23:39:00,35.2,18.0,30.18,SW,218,3.0,9.0,49,0.00,,,0.00,0.0,meteohub,2013-01-20 05:39:00,
2013-01-19 23:44:00,35.4,18.1,30.18,SW,218,3.0,8.0,49,0.00,,,0.00,0.0,meteohub,2013-01-20 05:44:00,
2013-01-19 23:49:00,35.1,17.8,30.18,SW,218,3.0,5.0,49,0.00,,,0.00,0.0,meteohub,2013-01-20 05:49:00,
2013-01-19 23:54:00,35.4,18.1,30.18,SW,218,0.0,4.0,49,0.00,,,0.00,0.0,meteohub,2013-01-20 05:54:00,
2013-01-19 23:59:00,35.1,17.4,30.18,SW,218,0.0,4.0,48,0.00,,,0.00,0.0,meteohub,2013-01-20 05:59:00,